STARLINK-2497 (48455 NORAD) Tracking and Keplerian Element Data

This shows tracking and keplerian element data for the satellite.

Feedback or suggestion? Click here.




ElementValue
Catalog48455
NameSTARLINK-2497
Epoch Orbit366
Epoch Day210.91668981
Epoch Year2021
RAAN181.0022
Inclination53.0493
Eccentricity0.0001351
Argument of Perigee82.0554
Mean Anonmoly207.195
Mean Motion15.24526586
Decay Rate-0.01064934
L11 48455U 21040AD 21210.91668981 -.01064934 00000-0 -46638-1 0 9994
L22 48455 53.0493 181.0022 0001351 82.0554 207.1950 15.24526586 3663

Live tracking and technical data element details for STARLINK-2497 (NORAD 48455). STARLINK-2497 can be tracked NOW for your location showing map with azimuth and elevation plus other details from your city location.

Track the satellite on the map from your city or location and see movement details for azimuth, elevation, latitude, longitude, range, height, and movement on the map or in text.







IsCatalogInMostPopularTable: catalog: 48455, numindb: 30
Update: records affected: 1



GetName: 48455 STARLINK-2497

Hit Count: updated at: Sat, 31 Jul 2021 15:33:27 GMT